Regional Weather Roundup
Issued by NWS

Home | Current Version | Previous Version | Text Only | Print | Product List | Glossary Off
Versions: 1 2 3 4 5 6 7 8 9 10 11 12 13 14 15 16 17 18 19 20 21 22 23 24 25 26 27 28 29 30 31 32 33 34 35 36 37 38 39 40 41 42 43 44 45 46 47 48 49 50

000
ASUS43 KBIS 220602
RWRND

NORTH DAKOTA REGIONAL WEATHER ROUNDUP
NATIONAL WEATHER SERVICE BISMARCK ND
100 AM CDT SAT JUL 22 2017

NOTE: "FAIR" INDICATES FEW OR NO CLOUDS BELOW 12,000 FEET WITH NO
SIGNIFICANT WEATHER AND/OR OBSTRUCTIONS TO VISIBILITY.


NDZ001>003-009>011-017-220700-
NORTHWEST NORTH DAKOTA

CITY           SKY/WX    TMP DP  RH WIND       PRES   REMARKS
WILLISTON      CLEAR     64  47  53 E7        29.90R
6HR MIN TEMP:  64; 6HR MAX TEMP:  92;

MINOT          CLEAR     68  60  75 W7        29.85S
MINOT AFB      CLEAR     61  56  85 W7        29.83S
$$

NDZ018>021-031>035-040>046-220700-
SOUTHWEST NORTH DAKOTA

CITY           SKY/WX    TMP DP  RH WIND       PRES   REMARKS
BISMARCK       PTCLDY    65  63  93 NW6       29.86R
6HR MIN TEMP:  63; 6HR MAX TEMP:  91; 6HR PCP:  0.60;

DICKINSON      CLEAR     64  41  42 NW8       29.90R
GARRISON         N/A     62  58  86 NW6       29.87R
6HR MIN TEMP:  61; 6HR MAX TEMP:  88;

HETTINGER ARPT CLEAR     62  44  51 W6        29.94R
$$

NDZ004>008-012>016-024-026-027-054-220700-
NORTHEAST NORTH DAKOTA

CITY           SKY/WX    TMP DP  RH WIND       PRES   REMARKS
GRAND FORKS    CLOUDY    71  71 100 CALM      29.74F
GRND FRKS AFB  CLOUDY    68  68 100 N6        29.76S
DEVILS LAKE    CLOUDY    66  65  96 S6        29.82S
$$

NDZ022-023-025-028>030-036>039-047>053-220700-
SOUTHEAST NORTH DAKOTA

CITY           SKY/WX    TMP DP  RH WIND       PRES   REMARKS
FARGO          MOCLDY    72  67  84 S9        29.76S
6HR MIN TEMP:  69; 6HR MAX TEMP:  83; 6HR PCP: TRACE;

JAMESTOWN      CLOUDY    70  66  87 E3        29.80S
$$




USA.gov is the U.S. government's official web portal to all federal, state and local government web resources and services.